Regional Weather Roundup
Issued by NWS Newport/Morehead, NC

Current Version | Previous Version | Graphics & Text | Print | Product List | Glossary Off
Versions: 1 2 3 4 5 6 7 8 9 10 11 12 13 14 15 16 17 18 19 20 21 22 23 24 25 26 27 28 29 30 31 32 33 34 35 36 37 38 39 40 41 42 43 44 45 46 47 48 49 50

000
ASUS42 KMHX 240025
RWRMHX
WEATHER ROUNDUP FOR EASTERN NORTH CAROLINA
NATIONAL WEATHER SERVICE NEWPORT/MOREHEAD CITY NC
800 PM EDT FRI SEP 23 2016

NOTE: "FAIR" INDICATES FEW OR NO CLOUDS BELOW 12,000 FEET
WITH NO SIGNIFICANT WEATHER AND/OR OBSTRUCTIONS TO VISIBILITY

NCZ015>017-031-032-045>047-102-103-240100-
NORTH COAST

CITY           SKY/WX    TMP DP  RH WIND       PRES   REMARKS
EDENTON        CLEAR     76  76 100 CALM      30.00R
ELIZABETH CITY CLEAR     74  70  87 NE6       30.00R
KITTY HAWK     NOT AVBL
MANTEO         PTCLDY    73  72  95 NE6       29.99S

$$

NCZ045>047-081-094-103-104-240100-
CENTRAL COAST

CITY           SKY/WX    TMP DP  RH WIND       PRES   REMARKS
FRISCO         CLEAR     75  71  87 NE5       29.98S

$$

NCZ095-097-098-100-101-240100-
SOUTHERN COAST

CITY           SKY/WX    TMP DP  RH WIND       PRES   REMARKS
BEAUFORT       MOCLDY    78  75  90 NE3       29.98S
CEDAR ISLAND   NOT AVBL
JACKSONVILLE   CLOUDY    75  72  90 CALM      29.98S
PINEY ISLAND   MOCLDY   N/A N/A N/A E10       29.98S
WILMINGTON     PTCLDY    74  73  97 N3        29.98S


$$

NCZ011>013-027>030-043-044-078>080-089-090>093-098-240100-
COASTAL PLAIN

CITY           SKY/WX    TMP DP  RH WIND       PRES   REMARKS
AHOSKIE        CLEAR     72  71  95 CALM      30.01S
CLINTON        CLEAR     73  73  98 CALM      30.00R
ELIZABETHTOWN  CLEAR     75  73  94 CALM      30.00R
GOLDSBORO      CLEAR     75  75 100 CALM      29.98S
GREENVILLE     PTCLDY    73  73 100 CALM      30.02R
HAVELOCK       RAIN      76  73  91 CALM      30.00S
KENANSVILLE    CLEAR     73  72  94 CALM      29.99S
KINSTON        CLEAR     73  72  94 CALM      30.00S
NEW BERN       LGT RAIN  75  73  93 CALM      30.00S
RICHLANDS      PTCLDY    72  72 100 CALM      29.99F
ROCKY MOUNT    CLEAR     71  71 100 CALM      30.00S
WASHINGTON     CLEAR     73  72  95 CALM      29.99S
WHITEVILLE     PTCLDY    74  72  93 CALM      29.99R

$$

AMZ130-135-150-152-154-156-158-170-250-252-270-ANZ085-086-088-633-658-670-240100-
MARINE OBSERVATIONS

STATION/POSITION TIME  TEMP    WIND        PRES    WAVE   SWELL
                       AIR SEA DIR/SP/G            HT/PER HT/PER
                 (UTC) (F)     (DEG/KT/KT) (MB)    (FT/S) (FT/S)
CHESAPEAKE LIGHT NOT AVBL
64 E VA BEACH    2350   74 76  360/ 12/ 14 1014.7    4/11   3/11
DUCK             2354   75 78   30/  8/  9 1014.9
2 E DUCK         2341      77                N/A     3/11   2/11
OREGON INLET     2354   75 81   20/  8/ 10 1015.1
13E OREGON INLT  2300      77                N/A     4/11   3/11
HATTERAS CG      2354   77 82   30/  7/ 10 1015.0
DIAMOND BUOY     2350   78 81   40/ 10/ 12 1014.9    4/11   3/11
CAPE LOOKOUT     0000   80      60/ 11/ 13 1014.7
BEAUFORT LAB     2354   77 80   50/  3/  4 1014.6
30 SE NEW RVR IN 0008   78 82   70/  8/ 12 1014.8
30 SE NEW RVR IN 2255      82                N/A     3/11   2/11
27 SE WRIGHTSVLE 0008   78 82   40/  8/ 12 1015.1
5 SE WRIGHTSVLE  NOT AVBL
225 S CAPE HAT   2350   82 84  240/  4/  6 1015.0    4/10   3/10
41 SE CHARLESTON 2350   79 83  250/  2/  4 1014.4    3/11   3/11

$$




USA.gov is the U.S. government's official web portal to all federal, state and local government web resources and services.